Location: Newark
(60.0000°N, 100.0000°E)
Time: 05:40:03
(UTC+00:00)

N. Korean satellite - Pass Details

Date: 19 November 2019
Orbit: 456 x 506 km, 97.2° (Epoch: 07 December)

Event Time Altitude Azimuth Distance (km) Brightness Sun altitude
Rises 23:20:40 0° 16° (NNE) 2,625 10.3 -15.0°
Reaches altitude 10° 23:22:47 10° 20° (NNE) 1,733 9.4 -14.7°
Maximum altitude 23:26:30 63° 102° (ESE) 571 7.2 -14.3°
Drops below altitude 10° 23:30:09 10° 185° (S) 1,705 9.5 -13.8°
Sets 23:32:14 0° 188° (S) 2,577 10.3 -13.6°
